Regional Weather Roundup
Issued by NWS Portland, ME

Home | Current Version | Previous Version | Text Only | Print | Product List | Glossary On
Versions: 1 2 3 4 5 6 7 8 9 10 11 12 13 14 15 16 17 18 19 20 21 22 23 24 25 26 27 28 29 30 31 32 33 34 35 36 37 38 39 40 41 42 43 44 45 46 47 48 49 50
000
ASUS41 KGYX 051010
RWRGYX
WEATHER ROUNDUP FOR MAINE AND NEW HAMPSHIRE
NATIONAL WEATHER SERVICE GRAY ME
600 AM EDT WED AUG 05 2015

MEZ002-005-006-010-012-015-018-020-021-024-026-027-029-051100-
MAINE

CITY           SKY/WX    TMP DP  RH WIND       PRES   REMARKS
PORTLAND       PTCLDY    58  58 100 S3        29.85F
SANFORD        CLEAR     55  52  88 SW5       29.87S
BAR HARBOR     CLOUDY    57  57 100 CALM      29.84S VSB 1/4
WISCASSET      MOCLDY    56  55  97 CALM      29.86S FOG
ROCKLAND       MOCLDY    55  54  94 CALM      29.83S VSB 1/4
FRYEBURG       CLEAR     53  53 100 NW3       29.87R
LEWISTONAUBURN PTCLDY    55  52  88 CALM      29.85S
AUGUSTA        FOG       58  57  97 CALM      29.85S VSB<1/4
WATERVILLE     CLOUDY    55  52  88 CALM      29.82S VSB<1/4
BANGOR         FOG       58  58 100 CALM      29.84S VSB 1/8
GREENVILLE       N/A     57  55  93 CALM      29.83S
MILLINOCKET    MOCLDY    56  55  97 CALM      29.84R
HOULTON        FOG       58  57  97 S5        29.81R VSB 1
PRESQUE ISLE   PTCLDY    57  52  82 SE5       29.79R
FRENCHVILLE    PTCLDY    55  53  93 S5        29.76R
CARIBOU        PTCLDY    58  55  90 SW5       29.77R
$$

NHZ002-005-008-009-011-012-014-051100-
NEW HAMPSHIRE

CITY           SKY/WX    TMP DP  RH WIND       PRES   REMARKS
PORTSMOUTH     PTCLDY    62  58  88 W5        29.86R
ROCHESTER      CLEAR     57  55  93 CALM      29.87R
NASHUA         CLEAR     58  55  90 NW3       29.89R
MANCHESTER     MOCLDY    60  56  86 SE3       29.87R
CONCORD        PTCLDY    55  53  93 CALM      29.88R
LACONIA        MOCLDY    55  54  94 CALM      29.87S
PLYMOUTH       FOG       56  56 100 CALM      29.89R VSB<1/4
BERLIN         FOG       53  51  93 CALM      29.88R VSB<1/4
WHITEFIELD     CLOUDY    53  51  93 CALM      29.88S
JAFFREY        CLEAR     55  53  93 CALM      29.91S
KEENE          CLEAR     54  48  82 CALM      29.91R
LEBANON        MOCLDY    59  56  89 S3        29.88R FOG
MT WASHINGTON  FOG       43  43 100 W30         N/A  VSB 0
$$

VTZ005-007-008-051100-
VERMONT

CITY           SKY/WX    TMP DP  RH WIND       PRES   REMARKS
ST JOHNSBURY     N/A     60  57  89 MISG      29.85S
MONTPELIER     FOG       55  54  96 CALM      29.91S VSB 1/2
BURLINGTON     MOCLDY    62  58  86 SE3       29.85F
$$

MAZ007-012-024-CTZ003-RIZ002-NYZ038-NYZ072-051100-
SOUTHERN NEW ENGLAND AND NY

CITY           SKY/WX    TMP DP  RH WIND       PRES   REMARKS
BOSTON         MOCLDY    66  61  84 S10       29.88S
WORCESTER      MOCLDY    60  56  86 W7        29.91F
NANTUCKET      PTCLDY    68  65  90 S6        29.88F
PROVIDENCE     CLEAR     65  61  87 CALM      29.89F
HARTFORD       PTCLDY    61  58  90 W3        29.89F
ALBANY         PTCLDY    61  57  87 CALM      29.91R
NEW YORK CITY  MOCLDY    72  65  78 NE3       29.89R
$$

ANZ081-ANZ082-ANZ150-NHZ014-MEZ023>029-051100-
COASTAL MARINE OBSERVATIONS

STATION/POSITION TIME  TEMP    WIND        PRES    WAVE
                       AIR SEA DIR/SP/G            HT/PER
                 (UTC) (F)     (DEG/KT/KT) (MB)    (FT/S)
MOUNT DESERT ROC 1000   59     280/ 11/ 11 1010.5S
MATINICUS ROCK   0900   62     250/ 10/ 10 1010.3R
ISLE OF SHOALS   0900   66     270/  9/ 10 1010.7F
JEFFREYS LEDGE   0903      65                N/A     3/ 8
CASHES LEDGE BUO 0950   63                 1010.5F   3/ 8
GEORGES BANK BUO 0950   70 66  230/ 12/ 14 1011.9F   7/ 8
$$

.............KEY..............
   WCI - WIND CHILL
   TC  - TEMPERATURE IN CELSIUS
   VSB - VISIBILITY IN MILES
   HX  - HEAT INDEX
   FAIR- INDICATES FEW OR NO CLOUDS BELOW 12,000 FT, WITH NO
         SIGNIFICANT WEATHER AND/OR OBSTRUCTIONS TO VISIBILITY.




USA.gov is the U.S. government's official web portal to all federal, state and local government web resources and services.